Weather in Eforie Nord

Romania     44°03′58″N   28°37′45″E
temp.,
°C
wind,
m/s
gust,
m/s
humid.,
%
clouds,
%
prec.,
mm/h
press.,
hPa
HPBL,
m
14 august, sun
sun1400:00+24sw227315 0.1 100871
03:00+24w227440 0.3 1007124
06:00+24nw447422 0.0 1006202
09:00+24nnw22640 0.0 1006254
12:00+25ese32630 0.0 1006391
15:00+26se65700 0.0 1005434
18:00+26sse55730 0.0 1005378
21:00+25sse56810 0.0 1005316
15 august, mon
mon1500:00+23w787820 0.9 1006394
03:00+20wnw688734 0.9 1005291
06:00+20wnw5589100 0.0 1005257
09:00+22wnw447811 0.0 1006351
12:00+25sse226144 0.0 1006359
15:00+24sse767294 0.3 1005275
18:00+25sse797689 0.5 1005251
21:00+25ssw687512 0.6 1006272
16 august, tue
tue1600:00+23w457019 0.1 1006113
03:00+23wsw56695 0.2 1007142
06:00+23w45695 0.0 1007170
09:00+25w45615 0.0 1008347
12:00+27sse44580 0.0 1007343
15:00+27sse896533 0.0 1007272
18:00+27s711690 0.0 1007218
21:00+27ssw7116793 0.0 1008212
17 august, wed
wed1700:00+26sw33635 0.0 100823
03:00+24nw676624 0.0 1008143
06:00+24nw69675 0.0 1008211
09:00+25nw45635 0.1 1009286
12:00+26e33605 0.0 1009331
15:00+26se66665 0.0 1009200
18:00+26s68717 0.0 1008150
21:00+26ssw686764 0.0 1009106
18 august, thu
thu1800:00+26n58662 0.0 1009164
03:00+25n45765 0.0 1009108
06:00+24nnw67845 0.0 1009246
09:00+25n55730 0.0 1010332
12:00+26ene44685 0.0 1010345
15:00+25ese55721 0.0 1009200
18:00+26sse667576 0.0 1009226
21:00+25s78809 0.0 1008180